This is the latest recevied weather packets stored in our database for station/object MB7UUE. If no packets are shown the sender has not sent any weather packets the latest 1 day(s).
| Time | Temp. | Humidity | Pressure | Rain* | Wind** | Luminosity | Snow |
|---|---|---|---|---|---|---|---|
| 1778019854 | 11.11° C | 74% | 1012.9 hPa | 0 mm | 0 m/s | - | - |
| 1778018715 | 11.67° C | 74% | 1012.8 hPa | 0 mm | 1.34 m/s, 5° | - | - |
| 1778017575 | 12.22° C | 64% | 1012.6 hPa | 0 mm | 0.89 m/s, 354° | - | - |
| 1778016435 | 12.78° C | 64% | 1012.6 hPa | 0 mm | 0.45 m/s, 351° | - | - |
| 1778015294 | 12.78° C | 64% | 1012.7 hPa | 0 mm | 0.89 m/s, 39° | - | - |
| 1778014155 | 12.78° C | 63% | 1012.7 hPa | 0 mm | 0 m/s | - | - |
| 1778013013 | 12.78° C | 63% | 1012.5 hPa | 0 mm | 0 m/s | - | - |
| 1778011874 | 13.33° C | 61% | 1012.4 hPa | 0 mm | 0 m/s | - | - |
| 1778010734 | 13.33° C | 59% | 1012.1 hPa | 0 mm | 0 m/s | - | - |
| 1778009594 | 13.33° C | 58% | 1011.8 hPa | 0 mm | 0 m/s | - | - |
| 1778008453 | 13.89° C | 57% | 1011.6 hPa | 0 mm | 0 m/s | - | - |
| 1778007315 | 13.89° C | 56% | 1011.4 hPa | 0 mm | 0 m/s | - | - |
| 1778006175 | 14.44° C | 55% | 1011.3 hPa | 0 mm | 0.89 m/s, 100° | - | - |
| 1778005034 | 14.44° C | 55% | 1011.3 hPa | 0 mm | 0 m/s | - | - |
| 1778004182 | 14.44° C | 54% | 1011.3 hPa | 0 mm | 0 m/s | - | - |
| 1778003040 | 15° C | 54% | 1011.3 hPa | 0 mm | 0 m/s | - | - |
| 1778001902 | 15° C | 53% | 1011.2 hPa | 0 mm | 0 m/s | - | - |
| 1778000762 | 15° C | 53% | 1011.3 hPa | 0 mm | 0 m/s | - | - |
| 1777999620 | 15.56° C | 52% | 1011.3 hPa | 0 mm | 0.45 m/s, 72° | - | - |
| 1777998481 | 15.56° C | 53% | 1011.3 hPa | 0 mm | 0.45 m/s, 103° | - | - |
| 1777997342 | 15.56° C | 54% | 1011.3 hPa | 0 mm | 0.89 m/s, 116° | - | - |
| 1777996201 | 15.56° C | 61% | 1011.4 hPa | 0 mm | 0 m/s | - | - |
| 1777995061 | 15.56° C | 59% | 1011.5 hPa | 0 mm | 0 m/s | - | - |
| 1777993921 | 16.11° C | 53% | 1011.6 hPa | 0 mm | 0.45 m/s, 113° | - | - |
| 1777992782 | 16.11° C | 51% | 1011.6 hPa | 0 mm | 0 m/s | - | - |
* Rain latest hour (hover to see other rain measurements)
** Current wind speed in m/s (hover to see current wind gust speed)